EZY464 EGKK-EGTE

Flight info

Callsign EZY464
Flight time 0h 31m
Altitude 16000
Route IMVUR N63 SAM L620 GIBSO
Aircraft A319/M-SDE3FGHIRWY/LB1

Departure

Time 2026-05-07 12:02
Airport London Gatwick Airport (EGKK)

Arrival

Time 2026-05-07 12:34
Airport Exeter International Airport (EGTE)
Time Latitude Longitude Altitude Speed Heading
2026-05-07 11:28 51.15838 -0.17636 211 ft 0 kts 347°
2026-05-07 11:47 51.15836 -0.17635 205 ft 2 kts 347°
2026-05-07 11:48 51.15811 -0.17625 214 ft 4 kts 344°
2026-05-07 11:48 51.15785 -0.17612 211 ft 4 kts 337°
2026-05-07 11:48 51.15762 -0.17592 211 ft 4 kts 311°
2026-05-07 11:48 51.15754 -0.17566 217 ft 1 kts 257°
2026-05-07 11:51 51.15752 -0.17584 217 ft 3 kts 257°
2026-05-07 11:51 51.15744 -0.17639 213 ft 7 kts 257°
2026-05-07 11:51 51.15732 -0.17727 214 ft 9 kts 257°
2026-05-07 11:51 51.15717 -0.17829 209 ft 10 kts 257°
2026-05-07 11:52 51.15702 -0.17939 212 ft 10 kts 257°
2026-05-07 11:52 51.15686 -0.18053 209 ft 11 kts 257°
2026-05-07 11:52 51.15669 -0.18173 208 ft 11 kts 258°
2026-05-07 11:52 51.15652 -0.18299 205 ft 12 kts 258°
2026-05-07 11:53 51.15588 -0.18351 205 ft 12 kts 171°
2026-05-07 11:53 51.15505 -0.18320 215 ft 13 kts 167°
2026-05-07 11:53 51.15417 -0.18290 205 ft 13 kts 168°
2026-05-07 11:53 51.15327 -0.18259 205 ft 13 kts 167°
2026-05-07 11:54 51.15234 -0.18227 214 ft 14 kts 171°
2026-05-07 11:54 51.15185 -0.18332 211 ft 14 kts 259°
2026-05-07 11:54 51.15165 -0.18482 205 ft 14 kts 257°
2026-05-07 11:54 51.15142 -0.18636 213 ft 15 kts 257°
2026-05-07 11:55 51.15119 -0.18795 206 ft 15 kts 259°
2026-05-07 11:55 51.15099 -0.18959 209 ft 15 kts 258°
2026-05-07 11:55 51.15077 -0.19122 205 ft 15 kts 258°
2026-05-07 11:55 51.15055 -0.19289 212 ft 15 kts 257°
2026-05-07 11:56 51.15031 -0.19456 205 ft 16 kts 257°
2026-05-07 11:56 51.15007 -0.19627 205 ft 16 kts 257°
2026-05-07 11:56 51.14983 -0.19801 210 ft 17 kts 257°
2026-05-07 11:56 51.14958 -0.19986 205 ft 17 kts 258°
2026-05-07 11:57 51.14936 -0.20145 207 ft 14 kts 257°
2026-05-07 11:57 51.14915 -0.20296 205 ft 14 kts 257°
2026-05-07 11:57 51.14893 -0.20453 209 ft 15 kts 257°
2026-05-07 11:57 51.14870 -0.20614 211 ft 15 kts 257°
2026-05-07 11:58 51.14847 -0.20778 205 ft 15 kts 258°
2026-05-07 11:58 51.14825 -0.20942 211 ft 15 kts 258°
2026-05-07 11:58 51.14801 -0.21109 205 ft 16 kts 254°
2026-05-07 11:58 51.14770 -0.21277 205 ft 16 kts 256°
2026-05-07 11:59 51.14740 -0.21396 205 ft 9 kts 218°
2026-05-07 11:59 51.14679 -0.21384 210 ft 10 kts 147°
2026-05-07 11:59 51.14621 -0.21332 209 ft 10 kts 168°
2026-05-07 11:59 51.14609 -0.21328 205 ft 0 kts 168°
2026-05-07 12:00 51.14593 -0.21322 216 ft 4 kts 165°
2026-05-07 12:00 51.14563 -0.21301 208 ft 7 kts 148°
2026-05-07 12:01 51.14527 -0.21235 209 ft 9 kts 116°
2026-05-07 12:01 51.14526 -0.21143 216 ft 8 kts 80°
2026-05-07 12:01 51.14537 -0.21061 207 ft 7 kts 77°
2026-05-07 12:01 51.14549 -0.20977 207 ft 10 kts 77°
2026-05-07 12:02 51.14616 -0.20477 215 ft 86 kts 78°
2026-05-07 12:02 51.14793 -0.19185 210 ft 150 kts 78°
2026-05-07 12:02 51.15026 -0.17486 716 ft 158 kts 78°
2026-05-07 12:02 51.15262 -0.15768 1455 ft 160 kts 78°
2026-05-07 12:03 51.15511 -0.13938 1906 ft 181 kts 78°
2026-05-07 12:03 51.15799 -0.11840 2350 ft 205 kts 78°
2026-05-07 12:03 51.16118 -0.09527 2887 ft 226 kts 78°
2026-05-07 12:03 51.16486 -0.07077 2992 ft 231 kts 70°
2026-05-07 12:04 51.17462 -0.05124 3010 ft 229 kts 28°
2026-05-07 12:04 51.18993 -0.04611 3013 ft 228 kts 356°
2026-05-07 12:04 51.20557 -0.05017 3007 ft 228 kts 345°
2026-05-07 12:04 51.21950 -0.06140 3005 ft 227 kts 313°
2026-05-07 12:05 51.22710 -0.08330 3019 ft 238 kts 282°
2026-05-07 12:05 51.22666 -0.11063 3012 ft 254 kts 259°
2026-05-07 12:05 51.22350 -0.13854 3006 ft 256 kts 258°
2026-05-07 12:05 51.22020 -0.16621 3010 ft 257 kts 258°
2026-05-07 12:06 51.21685 -0.19421 3010 ft 257 kts 259°
2026-05-07 12:06 51.21353 -0.22228 3010 ft 257 kts 259°
2026-05-07 12:06 51.21023 -0.25036 3010 ft 257 kts 259°
2026-05-07 12:06 51.20699 -0.27803 3011 ft 257 kts 259°
2026-05-07 12:07 51.20371 -0.30614 3009 ft 257 kts 259°
2026-05-07 12:07 51.20043 -0.33424 3009 ft 257 kts 259°
2026-05-07 12:07 51.19704 -0.36246 3198 ft 266 kts 258°
2026-05-07 12:07 51.19332 -0.39141 3885 ft 265 kts 258°
2026-05-07 12:08 51.18956 -0.41984 3987 ft 260 kts 258°
2026-05-07 12:08 51.18582 -0.44795 4002 ft 259 kts 258°
2026-05-07 12:08 51.18209 -0.47603 4003 ft 259 kts 258°
2026-05-07 12:08 51.17841 -0.50382 3987 ft 259 kts 258°
2026-05-07 12:09 51.17445 -0.53179 3985 ft 259 kts 253°
2026-05-07 12:09 51.16757 -0.55899 4392 ft 270 kts 247°
2026-05-07 12:09 51.16030 -0.58618 5651 ft 265 kts 247°
2026-05-07 12:09 51.15320 -0.61295 6721 ft 267 kts 247°
2026-05-07 12:10 51.14592 -0.64044 7677 ft 271 kts 246°
2026-05-07 12:10 51.13847 -0.66846 8628 ft 277 kts 246°
2026-05-07 12:10 51.13085 -0.69693 9571 ft 282 kts 246°
2026-05-07 12:10 51.12305 -0.72607 10336 ft 294 kts 246°
2026-05-07 12:11 51.11472 -0.75713 10708 ft 316 kts 246°
2026-05-07 12:11 51.10653 -0.78769 11349 ft 325 kts 246°
2026-05-07 12:11 51.09772 -0.82052 12157 ft 329 kts 246°
2026-05-07 12:11 51.08865 -0.85425 12994 ft 333 kts 246°
2026-05-07 12:12 51.07944 -0.88839 13833 ft 337 kts 246°
2026-05-07 12:12 51.07014 -0.92288 14587 ft 341 kts 246°
2026-05-07 12:12 51.06077 -0.95759 15355 ft 343 kts 246°
2026-05-07 12:12 51.05131 -0.99268 15820 ft 345 kts 246°
2026-05-07 12:13 51.04183 -1.02774 15960 ft 343 kts 246°
2026-05-07 12:13 51.03262 -1.06179 16006 ft 329 kts 245°
2026-05-07 12:13 51.02372 -1.09460 16003 ft 325 kts 245°
2026-05-07 12:13 51.01476 -1.12748 16007 ft 324 kts 245°
2026-05-07 12:14 51.00579 -1.16033 16005 ft 324 kts 245°
2026-05-07 12:14 50.99678 -1.19321 16012 ft 324 kts 245°
2026-05-07 12:14 50.98783 -1.22600 16010 ft 324 kts 245°
2026-05-07 12:14 50.97884 -1.25884 16008 ft 324 kts 245°
2026-05-07 12:15 50.96986 -1.29160 16012 ft 324 kts 245°
2026-05-07 12:15 50.96088 -1.32439 16007 ft 323 kts 245°
2026-05-07 12:15 50.95308 -1.35734 16006 ft 324 kts 253°
2026-05-07 12:15 50.94726 -1.39189 16010 ft 324 kts 254°
2026-05-07 12:16 50.94141 -1.42665 16010 ft 324 kts 253°
2026-05-07 12:16 50.93557 -1.46121 16011 ft 324 kts 253°
2026-05-07 12:16 50.92971 -1.49574 16016 ft 324 kts 253°
2026-05-07 12:16 50.92390 -1.52978 16013 ft 324 kts 253°
2026-05-07 12:17 50.91798 -1.56432 16013 ft 324 kts 253°
2026-05-07 12:17 50.91203 -1.59885 16011 ft 324 kts 253°
2026-05-07 12:17 50.90608 -1.63336 16012 ft 324 kts 253°
2026-05-07 12:17 50.90013 -1.66777 16011 ft 324 kts 253°
2026-05-07 12:18 50.89416 -1.70224 16007 ft 324 kts 253°
2026-05-07 12:18 50.88820 -1.73670 16010 ft 324 kts 253°
2026-05-07 12:18 50.88424 -1.75951 16009 ft 324 kts 253°
2026-05-07 12:18 50.87631 -1.80507 16009 ft 323 kts 253°
2026-05-07 12:19 50.87032 -1.83946 16014 ft 324 kts 253°
2026-05-07 12:19 50.86635 -1.86227 16015 ft 324 kts 253°
2026-05-07 12:19 50.86036 -1.89662 15979 ft 322 kts 253°
2026-05-07 12:19 50.85442 -1.93047 15725 ft 316 kts 253°
2026-05-07 12:20 50.84858 -1.96378 15473 ft 311 kts 252°
2026-05-07 12:20 50.84283 -1.99659 15222 ft 308 kts 252°
2026-05-07 12:20 50.83711 -2.02920 14971 ft 306 kts 252°
2026-05-07 12:20 50.83141 -2.06157 14724 ft 305 kts 253°
2026-05-07 12:21 50.82578 -2.09352 14485 ft 305 kts 253°
2026-05-07 12:21 50.82009 -2.12578 14242 ft 304 kts 252°
2026-05-07 12:21 50.81438 -2.15801 14001 ft 303 kts 253°
2026-05-07 12:21 50.80868 -2.19010 13750 ft 302 kts 252°
2026-05-07 12:22 50.80300 -2.22211 13478 ft 301 kts 252°
2026-05-07 12:22 50.79734 -2.25399 13206 ft 300 kts 252°
2026-05-07 12:22 50.79169 -2.28576 12938 ft 299 kts 252°
2026-05-07 12:22 50.78607 -2.31725 12692 ft 295 kts 252°
2026-05-07 12:23 50.78053 -2.34829 12386 ft 292 kts 252°
2026-05-07 12:23 50.77507 -2.37870 12020 ft 290 kts 252°
2026-05-07 12:23 50.76954 -2.40929 11663 ft 289 kts 252°
2026-05-07 12:23 50.76399 -2.43984 11295 ft 288 kts 252°
2026-05-07 12:24 50.75849 -2.47024 10915 ft 287 kts 252°
2026-05-07 12:24 50.75307 -2.50044 10636 ft 283 kts 253°
2026-05-07 12:24 50.75011 -2.53085 10157 ft 280 kts 266°
2026-05-07 12:24 50.75072 -2.56155 9551 ft 278 kts 270°
2026-05-07 12:25 50.75151 -2.59193 8958 ft 275 kts 270°
2026-05-07 12:25 50.75222 -2.62152 8351 ft 271 kts 270°
2026-05-07 12:25 50.75289 -2.65132 7710 ft 270 kts 270°
2026-05-07 12:25 50.75354 -2.68078 7123 ft 266 kts 271°
2026-05-07 12:26 50.75417 -2.70996 6502 ft 265 kts 271°
2026-05-07 12:26 50.75479 -2.73863 5827 ft 264 kts 271°
2026-05-07 12:26 50.75542 -2.76759 5183 ft 262 kts 271°
2026-05-07 12:26 50.75606 -2.79636 4503 ft 262 kts 269°
2026-05-07 12:27 50.75668 -2.82512 3927 ft 262 kts 269°
2026-05-07 12:27 50.75729 -2.85378 3537 ft 260 kts 268°
2026-05-07 12:27 50.75788 -2.88231 3140 ft 258 kts 269°
2026-05-07 12:27 50.75846 -2.91021 2993 ft 258 kts 268°
2026-05-07 12:28 50.75905 -2.93821 2993 ft 247 kts 268°
2026-05-07 12:28 50.75961 -2.96434 2997 ft 229 kts 268°
2026-05-07 12:28 50.76011 -2.98862 2996 ft 214 kts 267°
2026-05-07 12:28 50.76055 -3.01196 3000 ft 212 kts 266°
2026-05-07 12:29 50.76096 -3.03522 3003 ft 211 kts 268°
2026-05-07 12:29 50.76136 -3.05823 3006 ft 212 kts 268°
2026-05-07 12:29 50.76177 -3.08158 3006 ft 211 kts 268°
2026-05-07 12:29 50.76218 -3.10497 2924 ft 213 kts 267°
2026-05-07 12:30 50.76262 -3.12800 2793 ft 207 kts 267°
2026-05-07 12:30 50.76307 -3.15048 2657 ft 201 kts 266°
2026-05-07 12:30 50.76348 -3.17196 2564 ft 195 kts 268°
2026-05-07 12:30 50.76387 -3.19317 2497 ft 191 kts 267°
2026-05-07 12:31 50.76421 -3.21418 2507 ft 191 kts 265°
2026-05-07 12:31 50.76227 -3.23426 2527 ft 179 kts 250°
2026-05-07 12:31 50.75941 -3.25277 2352 ft 171 kts 250°
2026-05-07 12:31 50.75663 -3.27063 2096 ft 165 kts 251°
2026-05-07 12:32 50.75396 -3.28780 1860 ft 155 kts 250°
2026-05-07 12:32 50.75152 -3.30354 1620 ft 141 kts 251°
2026-05-07 12:32 50.74922 -3.31824 1390 ft 136 kts 250°
2026-05-07 12:32 50.74698 -3.33258 1176 ft 132 kts 248°
2026-05-07 12:33 50.74265 -3.36029 763 ft 129 kts 247°
2026-05-07 12:33 50.74054 -3.37386 563 ft 125 kts 249°
2026-05-07 12:33 50.73843 -3.38735 360 ft 127 kts 252°
2026-05-07 12:34 50.73632 -3.40083 155 ft 126 kts 251°
2026-05-07 12:34 50.73434 -3.41339 99 ft 99 kts 256°
2026-05-07 12:34 50.73334 -3.41970 98 ft 23 kts 259°
2026-05-07 12:34 50.73325 -3.42045 99 ft 0 kts 259°
2026-05-07 12:35 50.73325 -3.42048 99 ft 1 kts 259°
2026-05-07 12:35 50.73314 -3.42121 100 ft 9 kts 256°
2026-05-07 12:35 50.73292 -3.42224 100 ft 11 kts 236°
2026-05-07 12:35 50.73212 -3.42243 101 ft 14 kts 169°
2026-05-07 12:36 50.73121 -3.42207 99 ft 10 kts 165°
2026-05-07 12:36 50.73080 -3.42139 101 ft 8 kts 91°
2026-05-07 12:36 50.73073 -3.42055 101 ft 8 kts 120°
2026-05-07 12:36 50.73048 -3.42003 100 ft 0 kts 131°
2026-05-07 12:37 50.73045 -3.41997 99 ft 2 kts 131°
2026-05-07 12:37 50.73040 -3.41988 99 ft 0 kts 130°